Location: Invercargill
(46.4000°S, 168.3500°E)
Time: 10:08:53
(UTC+13:00)

ISS - Pass Details

Date: 31 January 2019
Orbit: 403 x 411 km, 51.6° (Epoch: 18 February)

Event Time Altitude Azimuth Distance (km) Brightness Sun altitude
Exits shadow 04:37:01 11° 34° (NE) 1,431 -1.2 -16.8°
Maximum altitude 04:37:46 12° 48° (NE) 1,396 -1.1 -16.8°
Drops below altitude 10° 04:39:03 10° 70° (ENE) 1,503 -0.7 -16.6°
Sets 04:42:14 0° 103° (ESE) 2,363 1.0 -16.3°
